Location: Cardiff
(53.7833°N, 113.6000°W)
Time: 05:08:13
(UTC+00:00)

SO-50 - Pass Details

Date: 06 December 2023
Orbit: 608 x 660 km, 64.6° (Epoch: 02 March)

Event Time Altitude Azimuth Distance (km) Brightness Sun altitude
Exits shadow 11:47:30 25° 44° (NE) 1,326 ? -32.3°
Drops below altitude 10° 11:49:24 10° 45° (NE) 2,046 ? -32.0°
Sets 11:51:41 0° 46° (NE) 2,950 ? -31.7°
